Content
SEND FEEDBACK

Daily
Averages
Monthly
Summary
United States of America

SALT LAKE CITY - TERMINAL RESERVOIR, UTAH


Home > North America > United States > Utah
Elevation: 4960 feet     Latitude: 40 42N     Longitude: 111 47W

WEATHER
 
SELECT A DAY
Number of Records: 355,148;   Date Range: 1/1/95 - 7/22/14
 
SHARE

PRINT THIS DATA

[ ← Previous Day ]
WEATHER ALMANAC - JANUARY 31, 2013
[ Next Day → ]
[ °C ]   °F
Weather ElementAverageHighLow
Temperature38.4 °F44.1 °F (3:53 pm)34 °F (5:53 am)
Dewpoint29 °F30.9 °F (9:53 am)27 °F (1:53 pm)
Humidity69.7 %85 % (5:53 am)51 % (3:53 pm)
Barometer30.31 in30.38 in (10:53 am)30.25 in (1:53 am)
Wind Speed4.4 mph10.4 mph (11:53 pm)
Weather ElementAverage
Visibility10 mi
Wind DirectionESE (104.3 °)

Weather ElementTotal
Precipitation---
Heating Degree Days26 (Base 65)
Averaged from 23 records on January 31, 2013
WEATHER CONDITIONS BREAKOUT
WIND DIRECTION BREAKOUT
WEATHER BY HOUR - JANUARY 31, 2013
[ °C ]   °F
Local TimeTemperatureDewpointHumidityBarometerVisibilityWind DirectionWind SpeedGust SpeedPrecipitationEventsConditions
1:53 AM37.0 °F28.9 °F73 %30.25 in10.0 miWNW (290°)3.5 mphMostly Cloudy
2:53 AM36.0 °F28.9 °F76 %30.27 in10.0 miSouth (190°)3.5 mphOvercast
3:53 AM35.6 °F28.4 °F75 %30.27 in10.0 miEast (80°)4.6 mphOvercast
4:53 AM35.1 °F30.0 °F82 %30.31 in10.0 miCalmOvercast
5:53 AM34.0 °F30.0 °F85 %30.32 in10.0 miESE (110°)5.8 mphOvercast
6:53 AM35.1 °F28.9 °F78 %30.34 in10.0 miESE (120°)5.8 mphMostly Cloudy
7:53 AM35.1 °F28.9 °F78 %30.34 in10.0 miSE (140°)5.8 mphMostly Cloudy
8:53 AM34.0 °F28.9 °F82 %30.37 in10.0 miESE (120°)4.6 mphMostly Cloudy
9:53 AM37.0 °F30.9 °F79 %30.35 in10.0 miSE (140°)4.6 mphMostly Cloudy
10:53 AM39.0 °F30.9 °F73 %30.38 in10.0 miSE (130°)4.6 mphMostly Cloudy
11:53 AM41.0 °F30.0 °F65 %30.36 in10.0 miCalmMostly Cloudy
12:53 PM42.1 °F28.9 °F60 %30.33 in10.0 miESE (120°)4.6 mphMostly Cloudy
1:53 PM43.0 °F27.0 °F53 %30.31 in10.0 miSouth (170°)3.5 mphMostly Cloudy
2:53 PM43.0 °F28.0 °F56 %30.30 in10.0 miCalmMostly Cloudy
3:53 PM44.1 °F27.0 °F51 %30.30 in10.0 miCalmMostly Cloudy
4:53 PM41.0 °F28.9 °F62 %30.30 in10.0 miCalmMostly Cloudy
5:53 PM41.0 °F28.9 °F62 %30.30 in10.0 miCalmMostly Cloudy
6:53 PM41.0 °F28.9 °F62 %30.30 in10.0 miSSE (160°)4.6 mphMostly Cloudy
7:53 PM37.9 °F30.0 °F73 %30.30 in10.0 miSE (140°)9.2 mphMostly Cloudy
8:53 PM37.9 °F30.0 °F73 %30.27 in10.0 miESE (120°)9.2 mphMostly Cloudy
9:53 PM37.9 °F28.9 °F70 %30.29 in10.0 miESE (110°)8.1 mphMostly Cloudy
10:53 PM37.9 °F28.0 °F68 %30.28 in10.0 miESE (120°)9.2 mphMostly Cloudy
11:53 PM37.9 °F28.0 °F68 %30.27 in10.0 miSE (140°)10.4 mphMostly Cloudy
Hourly data recorded from KSLC, located miles away from Salt Lake City - Terminal Reservoir, Utah







STORIES FROM OUR PARTNERS